Location: North Mitre
(40.7833°S, 175.4667°E)
Time: 18:11:04
(UTC+00:00)

Cosmos 1833 Rocket - Pass Details

Date: 04 August 2024
Orbit: 830 x 840 km, 71.0° (Epoch: 17 September)

Event Time Altitude Azimuth Distance (km) Brightness Sun altitude
Exits shadow 18:04:00 - 202° (SSW) 3,415 5.5 -14.7°
Rises 18:04:00 0° 202° (SSW) 3,411 5.5 -14.7°
Reaches altitude 10° 18:06:29 10° 200° (SSW) 2,470 4.8 -14.3°
Maximum altitude 18:12:09 73° 115° (ESE) 882 2.9 -13.2°
Drops below altitude 10° 18:17:45 10° 30° (NNE) 2,442 5.7 -12.2°
Sets 18:20:11 0° 28° (NNE) 3,369 6.5 -11.7°
